SCP
0 0 0 0 0 0 0 0 0 0 0 0 0 0 0 0 0 0 0 0 0 0 -0 -0 -0 -0 0 0 0 0 0 0
0 0 0 -0 0 0 0 0 0 0 0 0 0 0 0 0 0 0 0 0 0 0 0 0 0 0 0 0 0 0 0 0
0 0 0 -0 0 0 0 0 0 0 0 0 0 0 0 0 0 0 0 0 0 0 0 0 0 1 1 1 1 1 1 0
-0 0 -0 -0 0 0 0 0 0 0 0 0 0 0 0 0 0 0 0 0 0 0 0 1 1 1 1 1 1 1 1 1
0 0 0 0 -0 -0 0 0 0 0 0 0 0 0 0 0 1 0 0 0 0 1 1 1 1 1 1 1 1 1 1 1
0 0 0 0 0 0 0 -0 -0 -0 0 0 0 0 0 0 1 0 1 1 1 1 1 1 1 1 1 1 1 1 1 1
0 0 0 0 0 -0 0 0 -0 -0 0 0 0 0 0 0 0 0 0 1 1 1 1 1 1 1 2 2 2 2 3 2
0 0 0 -0 0 0 0 0 0 0 0 0 0 -0 0 0 0 0 0 0 0 0 0 0 0 1 0 0 0 0 0 2
0 0 0 0 0 0 0 0 0 0 0 0 0 0 0 0 0 0 0 -0 0 0 0 0 0 0 0 0 0 0 0 0
0 0 -0 0 0 0 0 0 0 0 0 -0 0 0 0 0 0 0 0 0 0 0 0 0 0 0 0 0 0 0 0 0
0 0 0 0 0 0 0 0 -0 0 0 0 0 0 0 0 1 0 0 0 0 0 0 0 0 0 0 0 0 0 0 0
0 0 0 0 0 0 0 0 0 0 0 0 0 0 0 0 0 0 0 0 0 0 0 0 0 0 0 0 0 0 0 0
0 0 0 0 0 0 0 0 0 0 1 0 0 0 0 0 1 2 0 0 0 0 0 0 0 0 0 0 0 0 0 0
0 0 0 0 0 1 1 1 1 0 1 1 1 1 1 0 0 2 1 1 1 0 0 0 0 0 0 0 0 0 0 0
0 1 1 1 1 1 1 1 1 1 1 1 1 1 1 1 0 1 0 1 1 0 0 0 0 0 0 0 0 0 0 0
1 1 1 1 2 2 2 1 1 2 1 1 1 1 1 1 0 0 0 0 0 0 0 0 0 0 0 0 0 0 0 0
1 2 2 1 3 5 2 2 2 2 1 1 1 0 0 0 0 0 0 0 0 0 0 0 0 0 0 0 0 0 0 0
2 3 2 4 5 3 1 1 1 0 0 0 0 0 0 0 0 0 0 0 0 0 0 0 0 0 0 0 0 0 0 0
2 3 4 3 3 1 0 0 0 0 0 0 0 0 0 0 0 0 0 0 0 0 0 0 0 0 0 0 0 0 0 0
Wind_Speed_500mb
17 4 12 11 9 8 8 8 7 6 4 4 2 1 3 5 7 10 13 16 18 20 22 23 24 25 25 26 27 28 28 29
18 5 11 10 7 5 4 3 2 2 2 4 6 8 9 11 13 15 18 21 23 25 28 30 32 34 35 35 36 36 36 37
23 2 13 15 13 11 8 5 3 4 7 9 11 13 15 18 20 23 26 28 30 32 33 36 39 41 43 44 45 45 44 44
16 10 24 22 22 12 12 10 7 6 7 10 12 15 17 20 20 22 28 29 32 34 36 39 43 45 48 50 52 53 53 52
22 16 10 18 19 17 13 14 12 12 12 13 15 15 14 18 17 24 26 26 31 40 47 48 49 49 48 49 52 55 56 56
20 22 23 22 17 11 16 25 18 22 16 16 18 21 12 15 12 20 26 33 33 36 36 44 39 36 38 44 49 49 50 54
24 21 20 17 15 13 10 22 25 19 17 23 24 21 19 14 9 16 18 25 27 27 38 36 33 31 41 46 43 50 57 56
21 17 17 27 27 15 16 12 6 12 10 14 28 32 30 18 20 28 16 23 26 25 30 34 35 35 33 38 44 50 50 51
26 23 21 25 26 25 18 18 13 13 11 16 27 27 29 17 31 26 28 25 25 26 31 34 40 46 53 60 62 58 58 56
26 24 22 14 19 21 13 8 13 9 15 14 18 21 34 21 25 29 29 23 35 28 32 41 49 45 51 57 51 57 64 63
28 22 13 8 18 3 7 11 11 13 10 11 13 28 30 33 28 37 33 25 23 34 40 44 55 52 61 60 61 57 60 65
26 25 21 9 7 9 9 6 9 15 19 13 18 22 30 33 42 37 34 39 40 45 52 59 50 66 59 62 66 68 63 64
27 23 17 10 6 18 19 20 17 17 26 27 23 30 30 33 34 44 52 49 52 58 58 68 66 62 71 71 67 71 74 85
24 17 12 11 11 15 12 20 22 18 25 32 33 32 35 36 40 42 54 60 58 71 69 59 64 66 73 81 82 83 87 87
25 24 22 20 20 28 27 19 26 26 28 30 37 42 46 57 60 62 65 63 57 58 62 66 68 74 77 84 86 79 75 78
26 22 21 19 21 26 25 23 24 28 38 47 41 43 37 35 40 49 61 75 81 83 77 75 79 89 76 67 72 77 76 73
30 25 24 24 19 25 28 32 31 31 37 42 31 37 46 61 75 86 92 94 92 90 85 61 52 63 67 61 58 72 68 64
34 29 24 31 32 35 41 21 24 33 40 39 50 59 71 78 81 86 80 60 55 60 70 75 80 85 89 85 79 74 62 56
36 34 36 39 32 35 35 26 33 33 39 49 60 71 81 83 71 49 55 63 72 74 75 62 62 66 70 79 78 78 79 78
Wind_Direction_500mb
112 80 108 112 122 123 117 117 119 115 117 122 125 272 269 265 263 264 269 275 281 284 285 285 284 284 284 285 286 286 283 284
131 103 106 93 88 98 121 119 94 33 335 319 308 296 287 282 280 283 288 291 292 293 295 295 294 294 294 293 291 289 287 285
139 36 97 83 80 81 80 68 28 332 316 306 305 303 300 301 303 304 300 296 296 293 293 294 295 295 294 293 291 289 287 286
120 37 78 68 52 68 72 67 45 16 342 326 317 314 315 322 326 324 324 312 301 303 302 304 301 298 296 294 292 288 285 284
125 138 96 64 49 45 48 53 44 28 11 354 338 330 346 358 338 345 321 314 310 305 307 304 301 302 299 298 293 291 288 285
111 106 104 99 81 58 27 32 41 32 20 9 344 342 36 315 332 333 312 318 318 320 321 320 325 312 311 305 307 299 290 280
116 106 110 110 106 84 61 48 51 29 1 354 2 15 1 15 344 310 322 328 324 319 321 328 327 320 316 310 312 310 300 293
125 122 111 131 107 94 85 78 65 36 44 0 10 26 27 23 335 344 338 306 314 321 320 306 312 318 306 302 290 279 286 305
127 127 127 119 130 123 117 109 78 64 50 353 1 8 16 25 350 15 337 6 320 333 323 316 298 286 288 281 279 281 277 280
137 134 133 128 113 114 121 75 95 88 22 40 349 320 335 347 322 343 337 351 316 320 317 305 300 314 298 303 302 287 276 269
146 147 151 136 97 75 55 62 75 338 15 326 324 321 325 317 310 320 320 319 325 306 301 291 309 306 305 298 301 299 293 286
158 182 148 231 227 330 2 344 2 344 295 307 293 306 304 305 306 313 303 312 298 298 292 299 299 297 296 297 290 292 290 286
182 194 168 176 312 321 316 309 320 319 310 329 323 305 305 306 302 299 300 299 299 295 294 294 300 297 294 293 291 287 285 284
183 204 207 226 227 247 256 277 302 312 304 315 313 324 324 313 308 302 301 300 293 296 299 296 294 296 293 290 288 288 287 279
205 208 207 215 230 251 280 312 320 305 300 290 287 294 295 299 302 301 299 300 302 299 294 295 295 292 288 289 293 291 287 283
216 224 234 244 267 281 283 286 287 276 274 291 297 315 321 305 293 291 294 293 292 291 292 297 293 295 301 296 292 292 291 287
220 237 249 270 269 246 255 271 287 296 294 307 325 289 291 291 293 295 294 294 294 296 299 303 292 291 287 287 293 296 304 297
208 227 248 227 235 256 281 288 267 283 296 301 297 302 302 303 297 298 303 307 298 292 290 291 291 291 293 292 289 286 293 287
206 204 210 235 247 272 287 298 305 312 309 308 308 307 307 308 316 309 294 290 290 290 292 297 296 295 297 295 291 281 274 279
Wind_Speed_850mb
17 4 12 11 9 8 8 8 7 6 4 4 2 1 3 5 7 10 13 16 18 20 22 23 24 25 25 26 27 28 28 29
18 5 11 10 7 5 4 3 2 2 2 4 6 8 9 11 13 15 18 21 23 25 28 30 32 34 35 35 36 36 36 37
23 2 13 15 13 11 8 5 3 4 7 9 11 13 15 18 20 23 26 28 30 32 33 36 39 41 43 44 45 45 44 44
16 10 24 22 22 12 12 10 7 6 7 10 12 15 17 20 20 22 28 29 32 34 36 39 43 45 48 50 52 53 53 52
22 16 10 18 19 17 13 14 12 12 12 13 15 15 14 18 17 24 26 26 31 40 47 48 49 49 48 49 52 55 56 56
20 22 23 22 17 11 16 25 18 22 16 16 18 21 12 15 12 20 26 33 33 36 36 44 39 36 38 44 49 49 50 54
24 21 20 17 15 13 10 22 25 19 17 23 24 21 19 14 9 16 18 25 27 27 38 36 33 31 41 46 43 50 57 56
21 17 17 27 27 15 16 12 6 12 10 14 28 32 30 18 20 28 16 23 26 25 30 34 35 35 33 38 44 50 50 51
26 23 21 25 26 25 18 18 13 13 11 16 27 27 29 17 31 26 28 25 25 26 31 34 40 46 53 60 62 58 58 56
26 24 22 14 19 21 13 8 13 9 15 14 18 21 34 21 25 29 29 23 35 28 32 41 49 45 51 57 51 57 64 63
28 22 13 8 18 3 7 11 11 13 10 11 13 28 30 33 28 37 33 25 23 34 40 44 55 52 61 60 61 57 60 65
26 25 21 9 7 9 9 6 9 15 19 13 18 22 30 33 42 37 34 39 40 45 52 59 50 66 59 62 66 68 63 64
27 23 17 10 6 18 19 20 17 17 26 27 23 30 30 33 34 44 52 49 52 58 58 68 66 62 71 71 67 71 74 85
24 17 12 11 11 15 12 20 22 18 25 32 33 32 35 36 40 42 54 60 58 71 69 59 64 66 73 81 82 83 87 87
25 24 22 20 20 28 27 19 26 26 28 30 37 42 46 57 60 62 65 63 57 58 62 66 68 74 77 84 86 79 75 78
26 22 21 19 21 26 25 23 24 28 38 47 41 43 37 35 40 49 61 75 81 83 77 75 79 89 76 67 72 77 76 73
30 25 24 24 19 25 28 32 31 31 37 42 31 37 46 61 75 86 92 94 92 90 85 61 52 63 67 61 58 72 68 64
34 29 24 31 32 35 41 21 24 33 40 39 50 59 71 78 81 86 80 60 55 60 70 75 80 85 89 85 79 74 62 56
36 34 36 39 32 35 35 26 33 33 39 49 60 71 81 83 71 49 55 63 72 74 75 62 62 66 70 79 78 78 79 78
Wind_Direction_850mb
112 80 108 112 122 123 117 117 119 115 117 122 125 272 269 265 263 264 269 275 281 284 285 285 284 284 284 285 286 286 283 284
131 103 106 93 88 98 121 119 94 33 335 319 308 296 287 282 280 283 288 291 292 293 295 295 294 294 294 293 291 289 287 285
139 36 97 83 80 81 80 68 28 332 316 306 305 303 300 301 303 304 300 296 296 293 293 294 295 295 294 293 291 289 287 286
120 37 78 68 52 68 72 67 45 16 342 326 317 314 315 322 326 324 324 312 301 303 302 304 301 298 296 294 292 288 285 284
125 138 96 64 49 45 48 53 44 28 11 354 338 330 346 358 338 345 321 314 310 305 307 304 301 302 299 298 293 291 288 285
111 106 104 99 81 58 27 32 41 32 20 9 344 342 36 315 332 333 312 318 318 320 321 320 325 312 311 305 307 299 290 280
116 106 110 110 106 84 61 48 51 29 1 354 2 15 1 15 344 310 322 328 324 319 321 328 327 320 316 310 312 310 300 293
125 122 111 131 107 94 85 78 65 36 44 0 10 26 27 23 335 344 338 306 314 321 320 306 312 318 306 302 290 279 286 305
127 127 127 119 130 123 117 109 78 64 50 353 1 8 16 25 350 15 337 6 320 333 323 316 298 286 288 281 279 281 277 280
137 134 133 128 113 114 121 75 95 88 22 40 349 320 335 347 322 343 337 351 316 320 317 305 300 314 298 303 302 287 276 269
146 147 151 136 97 75 55 62 75 338 15 326 324 321 325 317 310 320 320 319 325 306 301 291 309 306 305 298 301 299 293 286
158 182 148 231 227 330 2 344 2 344 295 307 293 306 304 305 306 313 303 312 298 298 292 299 299 297 296 297 290 292 290 286
182 194 168 176 312 321 316 309 320 319 310 329 323 305 305 306 302 299 300 299 299 295 294 294 300 297 294 293 291 287 285 284
183 204 207 226 227 247 256 277 302 312 304 315 313 324 324 313 308 302 301 300 293 296 299 296 294 296 293 290 288 288 287 279
205 208 207 215 230 251 280 312 320 305 300 290 287 294 295 299 302 301 299 300 302 299 294 295 295 292 288 289 293 291 287 283
216 224 234 244 267 281 283 286 287 276 274 291 297 315 321 305 293 291 294 293 292 291 292 297 293 295 301 296 292 292 291 287
220 237 249 270 269 246 255 271 287 296 294 307 325 289 291 291 293 295 294 294 294 296 299 303 292 291 287 287 293 296 304 297
208 227 248 227 235 256 281 288 267 283 296 301 297 302 302 303 297 298 303 307 298 292 290 291 291 291 293 292 289 286 293 287
206 204 210 235 247 272 287 298 305 312 309 308 308 307 307 308 316 309 294 290 290 290 292 297 296 295 297 295 291 281 274 279